Location: Eyeline Observatory
(43.2182°N, 78.8632°W)
Time: 22:35:02
(UTC-04:00)

Tiangong 2 - Pass Details

Date: 09 October 2017
Orbit: 388 x 391 km, 42.8° (Epoch: 22 October)

Event Time Altitude Azimuth Distance (km) Brightness Sun altitude
Exits shadow 06:28:28 11° 230° (SW) 1,370 3.4 -10.6°
Maximum altitude 06:31:22 40° 160° (SSE) 591 2.2 -10.1°
Drops below altitude 10° 06:34:24 10° 89° (E) 1,423 5.6 -9.5°
Sets 06:36:33 0° 81° (E) 2,281 7.1 -9.2°
